Location: Rowland
(34.5359°N, 79.2929°W)
Time: 19:19:14
(UTC+00:00)

S-56A Canister/Altair - Pass Details

Date: 11 October 2022
Orbit: 638 x 2494 km, 38.9° (Epoch: 02 December)

Event Time Altitude Azimuth Distance (km) Brightness Sun altitude
Rises 02:40:58 0° 228° (SW) 6,045 12.3 -47.1°
Reaches altitude 10° 02:44:52 10° 226° (SW) 5,114 11.8 -47.8°
Enters shadow 02:51:28 32° 218° (SW) 3,636 10.8 -48.9°
